[[{"header":{"parameterUnit":"m.s-1","parameterCategory":1,"la1":30.2991,"la2":30.254,"lo1":-89.0895,"lo2":-89.0444,"dy":0.0017,"dx":0.0017,"nx":28,"ny":28,"refTime":"2024-06-20T09:00:00:Z","depth":0,"parameterNumber":2,"parameterNumberName":"U-component_of_WINDS"},"data":[0,0,0,0,0,0,0,0,0,0,0,0,0,0,0,0,0,0,0,0,0,0,0,0,0,0,0,0,0,0,0,0,0,0,0,0,0,0,0,0,0,0,0,0,0,0,0,0,0,0,0,0,0,0,0,0,0,0,-0.1339,-0.1339,0,-0.1263,-0.1262,-0.1261,-0.1164,-0.1163,-0.1161,-0.116,-0.1083,-0.1083,-0.1082,0,0,0,0,0,0,0,0,0,0,0,0,0,-0.1402,-0.1402,-0.1339,-0.1338,-0.1338,-0.1263,-0.1262,-0.1261,-0.1164,-0.1163,-0.1161,-0.1159,-0.1084,-0.1083,-0.1082,0,0,0,0,0,0,0,0,0,0,0,0,0,-0.1356,-0.1402,-0.134,-0.128,-0.1274,-0.1263,-0.1262,-0.1261,-0.1165,-0.1163,-0.116,-0.1158,-0.1084,-0.1083,-0.1082,-0.1124,0,0,-0.108,-0.1079,0,0,0,0,0,0,0,0,-0.1358,-0.1353,-0.129,-0.1284,-0.1277,-0.1221,-0.1256,-0.1215,-0.1165,-0.1207,-0.116,-0.1157,-0.1131,-0.1126,-0.1117,-0.1121,-0.1117,-0.108,-0.1079,-0.1079,-0.1078,0,0,0,0,0,0,0,-0.1362,-0.1356,-0.1309,-0.1289,-0.1282,-0.1258,-0.1249,-0.1248,-0.1183,-0.1203,-0.1195,-0.1188,-0.1127,-0.1118,-0.1115,-0.1116,-0.108,-0.1079,-0.1078,-0.1078,-0.115,-0.1152,0,0,0,0,0,0,-0.1374,-0.136,-0.1312,-0.1307,-0.1313,-0.1259,-0.1248,-0.1241,-0.1183,-0.1172,-0.119,-0.1183,-0.1121,-0.1116,-0.1112,-0.1157,-0.1079,-0.1078,-0.1077,-0.1147,-0.115,-0.1153,0,0,0,0,0,0,-0.1375,-0.137,-0.1315,-0.1331,-0.1322,-0.126,-0.1253,-0.1241,-0.1232,-0.1173,-0.1161,-0.1192,-0.1119,-0.1113,-0.1122,-0.1153,-0.1078,-0.1077,-0.1145,-0.1148,-0.1152,-0.1249,0,0,0,0,0,0,-0.1378,-0.1372,-0.1387,-0.1332,-0.1322,-0.1326,-0.1255,-0.1241,-0.123,-0.1222,-0.1172,-0.1162,-0.1117,-0.1123,-0.1121,-0.1151,-0.1076,-0.1141,-0.1146,-0.115,-0.1242,-0.1255,-0.1266,0,0,0,0,0,-0.138,-0.1418,-0.1388,-0.1383,-0.1339,-0.1328,-0.1322,-0.1269,-0.1233,-0.1248,-0.121,-0.1163,-0.115,-0.1125,-0.1121,-0.1152,-0.1139,-0.1145,-0.115,-0.1237,-0.1253,-0.1266,0,0,0,0,0,0,-0.1479,-0.1409,-0.1376,-0.1397,-0.1369,-0.1312,-0.1329,-0.1287,-0.1269,-0.1261,-0.1196,-0.1186,-0.1203,-0.1177,-0.1151,-0.1189,-0.1138,-0.1143,-0.1205,-0.1219,-0.1231,-0.1237,-0.1075,0,0,0,0,0,-0.1502,-0.1498,-0.1438,-0.1463,-0.145,-0.1392,-0.1385,-0.1346,-0.1315,-0.1303,-0.1266,-0.1238,-0.1227,-0.1221,-0.1208,-0.1238,-0.1226,-0.1256,-0.1268,-0.1278,-0.1284,-0.1298,-0.1311,-0.1171,-0.1171,-0.1171,0,0,-0.1552,-0.1514,-0.1516,-0.1481,-0.1455,-0.1453,-0.1383,-0.1384,-0.1382,-0.1303,-0.1309,-0.1281,-0.1245,-0.1265,-0.1271,-0.1244,-0.1319,-0.1285,-0.1294,-0.1294,-0.1305,-0.1318,-0.133,-0.1174,-0.1174,-0.1173,0,0,-0.1642,-0.1612,-0.1629,-0.1604,-0.1565,-0.1526,-0.153,-0.1479,-0.1457,-0.1461,-0.1403,-0.1399,-0.1382,-0.1359,-0.1345,-0.1425,-0.1381,-0.1422,-0.1485,-0.1499,-0.151,-0.152,-0.1549,-0.156,-0.1428,-0.1428,-0.1428,0,-0.1709,-0.1703,-0.1644,-0.1648,-0.1635,-0.1562,-0.1579,-0.1558,-0.1517,-0.151,-0.1479,-0.1456,-0.1427,-0.144,-0.1459,-0.145,-0.1453,-0.1429,-0.1513,-0.1522,-0.153,-0.1558,-0.1569,-0.1433,-0.1433,-0.1432,-0.1431,0,-0.1788,-0.1785,-0.1803,-0.1765,-0.1753,-0.1764,-0.1706,-0.1702,-0.1663,-0.1628,-0.1633,-0.1595,-0.1573,-0.1573,-0.1536,-0.1581,-0.1565,-0.1525,-0.1473,-0.155,-0.1575,-0.1584,-0.1441,-0.1439,-0.1437,-0.1436,0,0,-0.194,-0.1867,-0.1875,-0.1856,-0.1807,-0.1804,-0.1811,-0.1788,-0.1786,-0.176,-0.1765,-0.1751,-0.1713,-0.1698,-0.1657,-0.1669,-0.1736,-0.1627,-0.1626,-0.165,-0.1784,-0.1816,-0.1829,-0.1706,-0.1708,-0.1709,-0.1787,0,-0.2021,-0.2029,-0.1975,-0.1998,-0.1994,-0.1925,-0.1931,-0.1902,-0.1868,-0.186,-0.1823,-0.1815,-0.1765,-0.1755,-0.1764,-0.1726,-0.1762,-0.1719,-0.1711,-0.1711,-0.1724,-0.1841,-0.1875,-0.1951,-0.1796,-0.1798,-0.1799,0,-0.2118,-0.2097,-0.2119,-0.2068,-0.2065,-0.2071,-0.2046,-0.2039,-0.2005,-0.1979,-0.1961,-0.1914,-0.1918,-0.1867,-0.1871,-0.1843,-0.1836,-0.1817,-0.1818,-0.1817,-0.1761,-0.1845,-0.1974,-0.1986,-0.1814,-0.1812,-0.1811,0,-0.2228,-0.2204,-0.2215,-0.2201,-0.2142,-0.2148,-0.2124,-0.2086,-0.2076,-0.2054,-0.2047,-0.2026,-0.2015,-0.2,-0.1948,-0.1915,-0.1959,-0.1903,-0.1939,-0.1941,-0.1953,-0.1953,-0.2085,-0.1946,-0.1946,-0.1946,-0.1945,0,-0.2326,-0.2343,-0.2263,-0.227,-0.2286,-0.2223,-0.2242,-0.2211,-0.2178,-0.2177,-0.2115,-0.2116,-0.2047,-0.2041,-0.2,-0.201,-0.2005,-0.1986,-0.1975,-0.1992,-0.1995,-0.1988,-0.1982,-0.1949,-0.1948,-0.1947,-0.1947,0,-0.2453,-0.24,-0.2406,-0.2349,-0.2335,-0.235,-0.2301,-0.2305,-0.2267,-0.2267,-0.2263,-0.2204,-0.2193,-0.2139,-0.2115,-0.2088,-0.2113,-0.209,-0.2125,-0.2118,-0.2157,-0.2155,-0.229,-0.2305,-0.2156,-0.2157,-0.2159,0,-0.2519,-0.253,-0.2474,-0.2469,-0.2447,-0.244,-0.2429,-0.2367,-0.2358,-0.2319,-0.2328,-0.2311,-0.2295,-0.228,-0.2236,-0.2217,-0.2195,-0.2243,-0.2192,-0.2209,-0.2197,-0.2198,-0.2199,-0.2255,-0.2257,-0.2259,-0.226,0,-0.2644,-0.2617,-0.2603,-0.258,-0.2569,-0.2548,-0.2523,-0.2523,-0.2454,-0.2448,-0.2435,-0.2422,-0.2397,-0.2382,-0.2356,-0.2331,-0.2285,-0.2276,-0.2283,-0.2302,-0.2322,-0.2313,-0.2157,-0.2274,-0.2272,-0.2271,-0.2271,-0.227,-0.2743,-0.275,-0.2711,-0.2698,-0.2673,-0.2651,-0.2652,-0.2613,-0.2601,-0.2576,-0.254,-0.2533,-0.2497,-0.2456,-0.2435,-0.2428,-0.2402,-0.2413,-0.2416,-0.242,-0.2429,-0.2322,-0.2423,-0.2423,-0.2422,-0.2422,-0.2421,0,-0.2866,-0.2837,-0.2825,-0.2793,-0.2782,-0.2738,-0.2708,-0.2703,-0.2696,-0.2667,-0.2651,-0.2637,-0.2622,-0.2575,-0.2555,-0.2558,-0.2537,-0.2555,-0.2555,-0.2551,-0.2453,-0.2449,-0.2573,-0.2573,-0.2573,-0.2573,-0.2573,-0.2573,-0.2928,-0.2937,-0.2906,-0.2902,-0.2872,-0.2864,-0.2851,-0.2831,-0.2807,-0.2793,-0.278,-0.2749,-0.2712,-0.2689,-0.2673,-0.2659,-0.2655,-0.2682,-0.2662,-0.2572,-0.2557,-0.2544,-0.254,-0.2681,-0.2681,-0.276,-0.276,-0.2761]},{"header":{"parameterUnit":"m.s-1","parameterCategory":1,"la1":30.2991,"la2":30.254,"lo1":-89.0895,"lo2":-89.0444,"dy":0.0017,"dx":0.0017,"nx":28,"ny":28,"refTime":"2024-06-20T09:00:00:Z","depth":0,"parameterNumber":3,"parameterNumberName":"V-component_of_WINDS"},"data":[0,0,0,0,0,0,0,0,0,0,0,0,0,0,0,0,0,0,0,0,0,0,0,0,0,0,0,0,0,0,0,0,0,0,0,0,0,0,0,0,0,0,0,0,0,0,0,0,0,0,0,0,0,0,0,0,0,0,-1.4466,-1.4466,0,-1.4468,-1.4468,-1.4468,-1.4474,-1.4474,-1.4474,-1.4474,-1.4476,-1.4476,-1.4476,0,0,0,0,0,0,0,0,0,0,0,0,0,-1.4466,-1.4466,-1.4466,-1.4466,-1.4466,-1.4468,-1.4468,-1.4468,-1.4474,-1.4474,-1.4474,-1.4474,-1.4476,-1.4476,-1.4476,0,0,0,0,0,0,0,0,0,0,0,0,0,-1.4467,-1.4466,-1.4466,-1.4469,-1.4469,-1.4468,-1.4468,-1.4468,-1.4474,-1.4474,-1.4474,-1.4474,-1.4476,-1.4476,-1.4476,-1.4472,0,0,-1.4476,-1.4476,0,0,0,0,0,0,0,0,-1.4467,-1.4467,-1.4469,-1.4469,-1.4469,-1.4471,-1.4469,-1.4469,-1.4474,-1.4472,-1.4474,-1.4474,-1.4474,-1.4474,-1.4474,-1.4472,-1.4472,-1.4476,-1.4476,-1.4476,-1.4476,0,0,0,0,0,0,0,-1.4467,-1.4467,-1.4467,-1.4469,-1.4469,-1.447,-1.4471,-1.4469,-1.4472,-1.4472,-1.4473,-1.4473,-1.4474,-1.4474,-1.4474,-1.4472,-1.4476,-1.4476,-1.4475,-1.4475,-1.4466,-1.4465,0,0,0,0,0,0,-1.4466,-1.4467,-1.4467,-1.4467,-1.4468,-1.447,-1.447,-1.447,-1.4472,-1.4473,-1.4473,-1.4473,-1.4474,-1.4474,-1.4474,-1.4469,-1.4476,-1.4475,-1.4475,-1.4466,-1.4466,-1.4465,0,0,0,0,0,0,-1.4466,-1.4466,-1.4467,-1.4467,-1.4467,-1.447,-1.447,-1.447,-1.447,-1.4473,-1.4473,-1.4472,-1.4475,-1.4475,-1.4472,-1.4469,-1.4475,-1.4475,-1.4466,-1.4466,-1.4466,-1.4459,0,0,0,0,0,0,-1.4466,-1.4466,-1.4465,-1.4467,-1.4467,-1.4465,-1.4469,-1.447,-1.447,-1.4471,-1.4472,-1.4473,-1.4475,-1.4472,-1.4472,-1.4469,-1.4475,-1.4466,-1.4466,-1.4466,-1.4459,-1.4459,-1.4458,0,0,0,0,0,-1.4466,-1.4463,-1.4465,-1.4465,-1.4465,-1.4465,-1.4465,-1.4467,-1.447,-1.4468,-1.447,-1.4473,-1.447,-1.4472,-1.4472,-1.4469,-1.4467,-1.4466,-1.4466,-1.446,-1.4459,-1.4458,0,0,0,0,0,0,-1.446,-1.4463,-1.4465,-1.4462,-1.4463,-1.4465,-1.4464,-1.4466,-1.4466,-1.4466,-1.447,-1.447,-1.4467,-1.4468,-1.447,-1.4465,-1.4469,-1.4468,-1.4464,-1.4463,-1.4462,-1.4462,-1.4475,0,0,0,0,0,-1.4458,-1.4458,-1.446,-1.4458,-1.4458,-1.4461,-1.446,-1.4463,-1.4463,-1.4464,-1.4465,-1.4465,-1.4465,-1.4464,-1.4464,-1.446,-1.446,-1.4458,-1.4457,-1.4456,-1.4455,-1.4453,-1.4452,-1.4464,-1.4464,-1.4464,0,0,-1.4455,-1.4457,-1.4456,-1.4457,-1.4457,-1.4456,-1.4461,-1.446,-1.4459,-1.4463,-1.4461,-1.4462,-1.4463,-1.446,-1.4458,-1.446,-1.4452,-1.4456,-1.4455,-1.4455,-1.4452,-1.4451,-1.445,-1.4464,-1.4464,-1.4464,0,0,-1.4448,-1.4449,-1.4447,-1.4448,-1.4449,-1.4451,-1.445,-1.4452,-1.4453,-1.4451,-1.4454,-1.4453,-1.4452,-1.4452,-1.4452,-1.4445,-1.4448,-1.4445,-1.444,-1.4438,-1.4437,-1.4436,-1.4433,-1.4432,-1.4445,-1.4445,-1.4445,0,-1.4443,-1.4442,-1.4446,-1.4444,-1.4444,-1.4448,-1.4446,-1.4446,-1.4447,-1.4447,-1.4449,-1.4448,-1.4448,-1.4445,-1.4443,-1.4443,-1.4442,-1.4445,-1.4437,-1.4436,-1.4435,-1.4432,-1.4431,-1.4444,-1.4444,-1.4444,-1.4444,0,-1.4436,-1.4435,-1.4433,-1.4434,-1.4434,-1.4432,-1.4435,-1.4434,-1.4436,-1.4438,-1.4435,-1.4436,-1.4436,-1.4435,-1.4438,-1.4432,-1.4433,-1.4436,-1.444,-1.4434,-1.4431,-1.443,-1.4444,-1.4444,-1.4444,-1.4444,0,0,-1.4425,-1.4428,-1.4427,-1.4427,-1.4429,-1.4428,-1.4426,-1.4426,-1.4425,-1.4426,-1.4424,-1.4422,-1.4425,-1.4425,-1.4427,-1.4425,-1.4419,-1.4428,-1.4428,-1.4426,-1.4412,-1.4409,-1.4408,-1.442,-1.442,-1.442,-1.4412,0,-1.4418,-1.4415,-1.4418,-1.4414,-1.4413,-1.4417,-1.4415,-1.4416,-1.4417,-1.4416,-1.4418,-1.4417,-1.442,-1.442,-1.4418,-1.442,-1.4416,-1.4421,-1.4418,-1.4418,-1.4417,-1.4407,-1.4404,-1.4396,-1.4411,-1.4411,-1.4411,0,-1.4409,-1.4409,-1.4405,-1.4407,-1.4407,-1.4405,-1.4405,-1.4404,-1.4405,-1.4406,-1.4406,-1.4408,-1.4406,-1.441,-1.4407,-1.441,-1.4409,-1.441,-1.441,-1.4409,-1.4413,-1.4405,-1.4394,-1.4392,-1.4409,-1.4409,-1.4409,0,-1.44,-1.44,-1.4397,-1.4397,-1.4399,-1.4398,-1.4399,-1.44,-1.4399,-1.4399,-1.4399,-1.4398,-1.4398,-1.4397,-1.44,-1.4403,-1.4396,-1.44,-1.4396,-1.4396,-1.4394,-1.4394,-1.4382,-1.4395,-1.4395,-1.4395,-1.4395,0,-1.4392,-1.4389,-1.4393,-1.4392,-1.4388,-1.4392,-1.4389,-1.439,-1.4391,-1.4389,-1.4393,-1.4391,-1.4395,-1.4393,-1.4395,-1.4392,-1.4392,-1.4392,-1.4393,-1.4391,-1.4391,-1.439,-1.4391,-1.4395,-1.4395,-1.4395,-1.4395,0,-1.4381,-1.4384,-1.4382,-1.4384,-1.4384,-1.4382,-1.4384,-1.4382,-1.4384,-1.4382,-1.4381,-1.4384,-1.4382,-1.4385,-1.4384,-1.4385,-1.438,-1.4382,-1.438,-1.438,-1.4375,-1.4375,-1.4361,-1.4359,-1.4374,-1.4374,-1.4374,0,-1.4375,-1.4373,-1.4375,-1.4375,-1.4375,-1.4374,-1.4373,-1.4377,-1.4376,-1.4377,-1.4375,-1.4374,-1.4373,-1.437,-1.4372,-1.4371,-1.4372,-1.4367,-1.4372,-1.4371,-1.4371,-1.4371,-1.437,-1.4366,-1.4366,-1.4366,-1.4366,0,-1.4364,-1.4365,-1.4365,-1.4364,-1.4364,-1.4364,-1.4364,-1.4363,-1.4367,-1.4366,-1.4364,-1.4364,-1.4362,-1.4361,-1.436,-1.4361,-1.4363,-1.4364,-1.4363,-1.4361,-1.436,-1.436,-1.4376,-1.4364,-1.4365,-1.4365,-1.4365,-1.4365,-1.4355,-1.4353,-1.4354,-1.4353,-1.4354,-1.4354,-1.4352,-1.4354,-1.4353,-1.4352,-1.4354,-1.4352,-1.4353,-1.4352,-1.4352,-1.4351,-1.4353,-1.4351,-1.4351,-1.435,-1.4349,-1.4361,-1.4351,-1.4351,-1.4351,-1.4351,-1.4351,0,-1.4343,-1.4344,-1.4343,-1.4343,-1.4342,-1.4346,-1.4346,-1.4345,-1.4343,-1.4343,-1.4343,-1.4341,-1.4339,-1.4341,-1.434,-1.4338,-1.4339,-1.4337,-1.4337,-1.4337,-1.4347,-1.4348,-1.4336,-1.4336,-1.4336,-1.4336,-1.4336,-1.4336,-1.4337,-1.4334,-1.4335,-1.4332,-1.4333,-1.4332,-1.4331,-1.4331,-1.4331,-1.4329,-1.4328,-1.4329,-1.433,-1.4329,-1.4328,-1.4328,-1.4327,-1.4325,-1.4326,-1.4335,-1.4336,-1.4338,-1.4338,-1.4325,-1.4325,-1.4315,-1.4315,-1.4315]}]]